Probability
0 0 0 0 0 0 0 0 0 0 1 2 3 2 2 1 1 0 1 2 5 6 6 7 9 7 6 6 3 2 2 4 5 4 3 3 3 3 3 3 2 2 2 2 4 6 6 6 6
0 0 0 0 0 0 0 0 0 1 2 3 4 3 2 1 1 1 2 4 7 8 6 7 8 7 5 4 3 2 3 4 4 4 3 3 3 3 3 3 2 2 3 4 5 6 6 6 6
0 0 0 0 0 0 0 0 0 1 4 5 5 4 2 2 2 3 5 7 9 8 7 7 8 6 4 2 1 2 3 4 4 3 3 3 3 3 3 2 1 2 4 5 7 8 7 7 6
0 0 0 0 0 0 0 0 0 2 5 6 6 4 2 2 4 6 9 11 10 8 7 8 9 7 3 1 1 3 5 4 4 4 4 3 2 2 2 2 1 1 3 6 8 9 8 7 7
0 0 0 0 0 0 0 1 1 2 5 8 8 4 2 3 7 10 12 12 10 8 6 8 12 10 5 2 2 4 6 6 6 6 5 4 3 1 1 2 1 1 3 6 8 9 8 7 7
0 0 0 0 0 0 1 2 2 2 5 7 8 6 3 4 8 13 14 12 9 7 7 8 10 10 7 5 4 6 7 7 7 7 6 4 3 1 1 3 4 3 4 6 7 7 8 7 6
0 0 0 0 0 0 1 2 2 2 2 5 8 8 5 5 9 15 17 13 8 6 7 6 5 5 6 6 7 9 10 8 7 6 5 3 2 1 1 4 5 5 5 5 6 6 7 6 5
0 0 0 0 0 0 0 1 1 1 1 4 7 7 6 6 11 18 20 16 10 6 5 4 2 1 2 4 7 10 11 9 7 6 5 4 3 1 1 3 4 4 4 4 5 6 7 6 6
0 0 0 0 0 0 0 0 1 2 3 5 8 9 10 12 15 19 21 19 14 8 5 3 1 0 1 3 5 7 8 7 7 7 6 5 3 2 1 2 3 3 3 3 5 7 6 6 5
0 0 0 0 0 0 0 0 2 3 5 7 10 13 17 20 19 20 21 20 15 10 6 4 2 1 1 2 3 4 4 5 6 5 4 3 1 1 1 1 2 3 3 3 4 4 4 3 2
0 0 0 0 0 0 0 0 2 3 5 8 11 15 19 21 20 20 20 17 15 12 8 5 3 2 1 1 3 3 2 3 4 4 2 1 0 0 0 0 1 1 1 1 1 1 1 1 0
0 0 0 0 0 0 0 0 2 3 5 8 12 14 15 16 17 18 17 16 15 14 10 6 6 4 1 1 2 2 2 2 3 3 2 0 0 0 0 0 0 0 0 0 0 0 0 0 0
0 0 0 0 0 0 1 1 2 4 7 11 13 14 13 13 15 17 16 16 16 15 11 9 9 7 4 2 2 3 3 3 3 3 2 1 1 0 0 0 0 0 0 0 0 0 0 0 0
0 0 0 0 0 1 2 3 4 5 9 11 12 12 14 15 16 18 18 17 17 16 13 11 11 10 9 7 5 6 7 6 4 3 4 4 2 1 1 1 0 0 0 0 0 0 0 0 0
0 0 0 0 0 2 3 4 5 6 9 10 10 11 14 15 16 17 18 17 18 18 18 16 14 14 14 11 9 10 11 9 7 5 5 6 4 2 2 2 1 1 1 1 0 0 0 0 0
0 0 0 0 0 1 2 4 6 7 10 12 12 13 14 14 14 16 17 16 17 19 19 19 17 17 15 12 10 11 12 11 9 7 7 7 6 4 3 3 2 3 3 2 1 0 0 0 0
0 0 0 0 0 1 3 5 8 10 14 15 15 16 16 16 15 16 19 19 19 19 20 20 19 18 16 12 11 10 10 10 10 9 8 8 7 6 4 3 2 4 4 3 3 1 0 0 0
0 0 0 0 1 2 4 7 10 14 17 17 16 17 18 19 19 20 22 23 23 23 22 21 21 20 17 15 13 11 10 10 10 10 10 9 9 7 6 4 2 2 2 2 2 2 0 0 0
0 0 0 0 1 3 5 8 12 16 19 18 16 18 21 23 24 24 25 25 26 25 24 23 24 24 21 18 17 14 12 13 13 13 12 11 9 8 8 6 3 2 0 0 1 1 0 0 0
0 0 0 1 2 3 4 7 11 15 18 18 17 20 24 26 27 27 26 26 27 26 24 24 26 26 23 20 19 17 15 15 16 17 15 12 9 8 8 7 5 3 1 1 1 1 1 0 0
0 0 0 1 2 2 3 6 9 13 17 18 18 20 24 25 26 27 27 27 28 27 25 25 26 26 23 21 20 18 16 16 17 18 16 13 10 9 8 6 5 4 3 2 2 2 2 1 1
0 0 0 1 1 1 2 4 8 13 17 18 18 20 22 22 23 24 25 27 27 26 25 25 25 25 23 21 21 19 17 16 16 16 15 13 10 9 7 6 5 4 3 3 3 3 3 3 2
0 0 0 0 0 0 1 2 6 12 18 20 21 22 22 23 23 22 23 26 27 26 24 25 26 25 23 22 21 20 19 17 16 16 15 12 10 8 7 6 6 4 3 3 3 3 3 4 4
0 0 0 0 0 0 0 1 4 10 17 22 25 24 24 25 25 22 21 24 26 26 28 29 29 27 26 24 22 21 19 17 17 18 17 14 11 9 7 6 6 5 4 3 4 4 4 4 5
0 0 0 0 0 0 0 1 3 8 16 23 25 24 24 26 26 24 21 22 26 30 34 35 32 28 28 27 25 23 20 18 17 18 17 14 13 12 10 8 7 5 4 4 4 5 4 5 5
0 0 0 0 0 0 1 2 6 10 15 20 23 24 24 24 23 22 22 24 29 35 39 39 36 31 30 29 27 25 23 20 18 17 15 14 15 15 12 9 7 4 3 3 4 4 5 5 5
0 0 0 0 0 0 1 4 9 12 13 15 18 21 23 21 19 19 21 25 32 37 41 41 40 36 33 31 28 28 26 22 19 15 13 14 16 15 12 9 6 3 1 1 2 3 4 4 4
0 0 0 0 0 0 1 3 8 11 12 12 15 18 18 16 14 14 17 23 31 37 40 41 41 41 39 34 31 28 25 21 16 12 12 13 14 13 10 7 5 2 0 0 1 1 2 2 2
0 0 0 0 0 0 0 1 5 10 12 12 13 14 13 10 9 11 15 19 26 33 38 39 39 40 39 36 33 29 24 19 12 8 9 12 12 10 7 6 4 1 0 0 0 0 1 1 1
0 0 0 0 0 0 0 0 3 9 12 12 12 11 9 7 7 10 13 17 22 29 34 38 38 37 36 35 33 30 25 17 9 6 8 10 10 8 6 4 2 1 0 0 0 0 0 0 0
Wind_Speed
5 4 3 1 3 4 1 1 3 4 4 6 9 11 9 6 5 5 3 12 13 11 8 10 12 12 11 11 10 10 10 9 10 10 10 9 9 9 9 9 9 9 9 9 9 10 9 9 9
3 4 1 2 5 3 3 1 4 6 8 10 11 11 9 7 8 10 7 12 14 12 8 9 12 12 11 10 10 9 9 9 9 9 10 9 9 9 9 8 8 8 8 8 9 9 9 8 8
3 3 2 3 2 3 2 1 4 6 8 8 6 6 6 7 9 8 9 15 12 9 7 9 13 12 11 10 10 10 10 9 9 9 9 9 9 8 8 8 8 7 7 8 8 8 8 8 8
1 2 3 3 2 4 4 3 4 7 6 7 8 7 5 5 7 11 16 15 13 9 7 9 12 13 11 10 10 10 10 9 9 8 8 8 9 8 7 7 7 7 7 8 8 7 6 6 6
2 3 4 2 3 3 2 3 6 7 5 7 10 8 4 5 15 18 16 15 13 9 7 8 12 12 11 11 10 10 9 9 8 8 8 8 8 8 7 7 7 7 7 7 6 6 5 5 5
3 4 3 2 3 2 1 3 7 10 10 8 10 8 4 9 15 15 15 13 12 11 8 7 11 12 11 11 10 10 9 9 8 7 7 7 7 7 7 6 6 6 6 6 6 4 5 5 4
3 2 2 2 2 2 2 2 8 9 8 6 8 7 5 8 12 14 13 12 10 10 9 6 6 7 10 10 10 10 9 8 8 7 7 7 7 7 7 5 5 5 5 5 4 4 4 4 4
4 3 2 2 2 2 2 2 5 9 7 7 6 8 7 9 12 12 11 10 9 8 8 6 5 4 5 5 9 10 9 9 8 7 7 7 7 6 6 5 5 5 5 5 4 3 4 3 3
2 3 3 4 2 2 1 4 3 5 8 4 4 7 10 13 14 13 10 7 7 7 5 6 6 4 4 4 7 7 8 7 7 5 6 5 2 2 3 4 5 5 5 5 4 3 3 2 2
4 3 6 5 4 3 2 5 4 5 7 6 8 9 12 13 14 13 11 10 9 8 6 6 6 6 5 5 4 3 3 3 3 2 2 2 2 1 2 3 5 5 4 4 3 2 2 1 0
3 5 5 5 5 3 2 2 4 9 5 8 14 15 13 12 12 11 10 10 10 11 9 7 6 6 5 3 4 2 1 2 2 2 3 2 2 1 1 1 1 2 2 1 1 0 0 1 1
3 6 5 6 5 2 3 4 4 6 9 12 16 17 14 12 12 11 10 9 8 9 9 8 7 5 5 4 3 3 2 2 2 2 3 2 1 1 1 1 1 1 1 1 1 0 1 1 1
4 6 6 6 4 2 3 4 5 5 11 12 14 14 13 12 10 9 9 8 8 8 8 7 7 6 5 4 3 4 3 3 2 2 2 3 2 1 1 1 1 1 1 1 1 1 1 1 1
5 5 6 5 3 1 4 2 4 6 11 13 13 12 11 12 11 9 8 8 8 8 8 7 7 6 6 4 3 3 3 3 3 3 4 4 3 2 1 1 1 1 1 1 2 2 1 0 0
2 3 6 5 2 2 5 2 3 9 12 12 11 10 10 9 10 10 10 10 9 8 7 7 7 6 6 5 4 3 3 3 3 3 3 4 4 3 2 1 1 0 1 2 1 1 1 1 1
4 3 4 7 2 2 6 3 4 8 12 10 9 9 9 7 9 9 9 9 8 8 7 7 7 6 5 5 4 3 3 3 3 3 3 4 4 4 3 2 1 0 1 1 2 1 1 1 1
4 1 4 8 4 1 3 5 5 7 10 10 9 8 8 7 6 7 9 9 8 8 7 6 6 6 5 5 4 4 3 3 3 3 3 3 4 4 3 2 1 1 1 1 1 1 2 1 1
4 3 4 6 4 1 2 3 3 6 9 9 8 7 7 8 8 8 9 9 8 7 7 6 6 5 5 4 4 3 3 2 2 3 3 3 3 4 3 2 1 2 1 1 1 1 1 1 1
4 3 6 7 4 2 2 2 3 5 7 7 6 7 7 8 8 8 9 9 8 6 6 6 6 4 4 3 3 3 2 1 1 2 3 3 3 3 3 2 2 1 1 1 1 1 1 1 1
4 4 5 6 3 1 3 1 3 5 7 9 10 9 7 7 7 8 8 7 8 7 6 6 6 5 4 3 3 3 2 1 1 1 2 2 3 3 3 3 2 2 1 1 1 1 1 1 1
5 5 5 4 3 4 5 3 2 1 2 5 7 8 8 10 11 10 9 9 8 7 7 7 6 5 4 4 3 3 2 2 2 1 1 1 2 2 2 3 2 2 2 1 1 2 2 1 0
5 6 5 3 2 2 3 1 4 1 1 3 5 6 7 8 9 10 10 9 9 9 8 7 7 6 5 5 4 5 3 2 2 1 1 1 2 2 2 2 2 2 2 2 2 2 2 2 1
6 5 4 3 3 1 2 3 5 1 2 4 4 6 8 9 10 10 10 10 9 9 8 6 6 5 5 5 5 5 3 2 1 1 1 1 0 1 1 2 2 2 1 1 1 1 1 2 2
2 3 4 4 5 1 3 3 4 3 6 5 4 4 5 7 9 8 8 7 6 6 6 6 7 5 5 5 5 5 5 4 3 2 2 1 1 0 1 2 1 2 1 2 1 1 2 1 1
5 6 4 5 4 3 3 2 4 5 5 6 6 4 4 5 7 6 6 6 6 7 6 6 6 5 5 5 5 5 5 5 5 4 3 2 1 1 2 2 2 1 1 1 1 1 1 1 1
2 8 7 4 4 3 2 2 4 3 1 4 5 5 5 5 5 6 6 6 7 7 7 6 6 6 5 5 4 4 5 4 3 4 3 3 3 2 2 2 2 2 1 1 1 1 1 1 1
1 2 7 7 1 0 2 1 3 4 3 4 4 4 4 4 5 5 5 5 5 6 7 8 7 6 6 6 5 4 4 4 4 4 3 3 2 2 2 2 2 1 1 1 1 1 1 1 1
3 3 6 5 3 1 2 1 2 1 0 2 3 3 2 2 4 4 4 4 4 4 5 6 7 6 5 5 5 5 4 4 4 3 3 3 3 2 2 2 1 1 1 1 1 1 1 1 1
3 3 4 4 5 5 2 4 4 5 3 2 1 1 2 3 3 3 4 4 4 4 4 4 5 5 4 4 4 3 3 3 3 3 3 3 2 3 3 3 2 1 1 1 1 1 1 1 1
3 2 4 4 1 4 4 4 2 3 2 3 2 1 2 2 2 3 4 5 4 4 4 4 4 4 4 4 3 3 3 3 3 3 3 3 3 3 3 3 2 2 1 1 2 2 1 1 2
Wind_Direction
170 163 153 117 53 43 325 234 125 84 60 68 85 91 91 79 110 134 137 139 141 145 147 139 133 129 126 124 121 118 115 110 109 110 110 108 108 111 113 114 120 124 126 129 129 129 128 126 125
176 169 118 58 74 48 302 210 107 103 123 110 90 92 86 78 95 114 124 144 145 144 146 141 137 133 131 130 126 123 120 115 113 114 115 114 114 118 119 119 121 124 131 136 135 134 132 132 131
210 189 100 70 100 175 212 181 135 118 118 106 94 73 83 109 117 132 146 147 140 139 142 142 138 137 136 135 133 130 126 122 120 118 119 119 118 125 126 126 124 129 136 139 139 140 137 137 139
125 66 51 65 242 231 198 182 131 114 90 83 98 74 67 106 125 136 142 143 138 140 144 145 141 140 140 138 136 135 132 130 129 127 125 124 125 126 127 127 129 131 138 140 143 145 146 146 146
81 74 45 351 270 244 199 165 139 123 108 103 99 96 76 77 117 132 141 143 141 143 147 149 145 143 143 141 140 140 139 138 137 135 131 129 129 130 133 134 137 137 143 145 149 155 158 157 158
52 68 65 289 282 270 224 155 112 105 112 110 105 107 101 119 127 140 144 143 144 145 148 147 149 147 146 145 144 143 143 144 143 139 137 135 135 134 136 138 138 138 141 148 153 155 158 159 165
119 97 208 241 285 298 204 135 114 122 126 134 128 107 121 129 137 141 142 139 141 143 143 146 149 150 150 149 150 147 145 147 147 145 145 146 144 143 145 146 149 151 152 154 155 157 150 150 151
154 96 310 275 268 264 215 103 117 119 119 131 123 129 154 159 140 136 136 133 137 142 145 145 146 150 152 156 157 155 152 152 151 150 152 156 157 157 157 158 162 162 161 163 168 166 156 153 154
117 88 243 243 221 242 207 94 72 79 107 112 106 132 150 144 132 128 127 127 137 143 150 150 151 155 157 166 164 161 157 158 156 155 156 153 155 162 164 167 172 176 175 175 181 187 177 175 181
112 157 226 224 219 214 187 132 131 95 92 90 94 107 130 132 132 136 143 149 153 158 167 165 165 168 169 170 155 158 161 161 160 163 164 150 154 168 174 179 188 188 188 186 188 197 206 216 231
188 203 235 252 254 228 186 151 128 125 124 147 144 144 144 135 138 145 152 158 165 164 166 172 172 174 171 164 155 160 164 166 176 177 173 162 157 165 169 158 202 205 197 193 204 211 207 174 178
255 258 244 251 258 239 196 150 126 140 163 161 151 150 148 146 152 155 155 158 160 160 166 169 169 169 172 162 158 159 165 171 175 179 164 144 130 137 157 173 197 190 186 183 208 192 203 201 194
264 267 269 257 274 230 140 135 135 140 146 148 146 148 151 153 156 155 151 153 153 156 160 165 164 163 159 154 164 160 166 161 157 143 139 132 127 151 160 166 149 171 177 170 172 179 184 199 207
253 273 288 280 273 223 128 133 111 153 145 145 150 153 153 155 155 149 143 147 153 156 155 157 157 149 144 148 153 154 152 147 144 141 145 135 121 122 129 131 126 154 163 166 165 161 154 170 165
283 312 320 303 293 226 106 60 159 165 146 149 155 155 153 157 155 156 155 153 154 154 146 145 147 139 139 145 150 143 139 137 137 138 135 129 129 139 130 128 119 168 160 149 134 125 122 142 151
1 4 316 292 288 250 113 193 214 168 145 151 155 155 152 155 157 155 151 149 150 149 143 145 143 137 135 133 126 126 127 126 128 126 128 131 135 132 125 124 125 166 131 130 130 126 111 104 102
4 299 267 288 281 243 129 194 206 169 148 150 155 154 153 147 144 151 150 148 149 149 144 141 133 134 133 125 116 119 121 121 128 126 124 126 129 129 124 120 119 96 91 106 136 110 125 123 113
246 255 270 265 278 77 123 187 174 166 148 150 150 153 157 156 158 155 145 143 140 144 141 136 132 133 130 117 102 95 95 103 114 123 130 129 129 125 120 118 92 88 93 77 86 111 107 139 151
229 271 285 279 272 78 141 156 169 157 144 140 146 156 156 162 158 148 140 140 135 136 135 135 131 140 132 126 124 119 121 124 113 127 138 134 126 120 117 109 98 102 115 132 120 121 101 84 104
242 263 279 288 296 97 102 125 182 149 167 161 161 159 156 147 140 142 140 142 148 153 147 140 144 145 146 148 147 142 141 142 146 129 129 140 137 137 134 127 129 139 127 105 103 121 119 115 116
240 218 229 245 345 36 91 8 315 191 144 147 157 161 159 155 157 153 151 159 161 163 161 157 153 145 145 139 121 104 78 63 61 65 119 152 146 140 134 141 139 142 138 148 163 152 140 150 188
247 226 203 199 88 285 120 164 288 191 262 179 169 168 167 163 159 161 162 166 170 174 167 158 155 151 147 141 140 138 138 153 186 176 165 137 139 137 140 139 143 146 153 171 183 164 154 149 169
223 219 194 174 137 40 11 116 272 168 239 224 194 174 170 167 164 168 172 175 173 169 166 159 154 155 155 153 155 150 149 166 151 127 117 112 119 152 157 158 153 159 167 181 177 155 149 155 165
182 41 34 47 75 46 263 152 258 235 217 205 189 171 170 167 160 165 169 163 163 162 161 158 155 160 164 158 155 159 163 164 148 150 163 196 228 231 192 169 174 181 177 188 187 177 167 169 163
66 77 32 9 22 251 264 133 238 247 217 169 165 151 143 153 151 154 149 153 163 162 164 165 161 167 172 164 166 171 174 171 172 175 185 191 198 212 217 187 184 191 197 190 176 165 181 179 168
178 131 152 187 213 264 328 194 252 271 206 140 140 135 131 146 152 157 161 166 168 167 166 169 172 177 178 175 178 178 179 178 183 185 185 194 201 207 198 180 178 193 192 180 165 163 193 170 177
129 161 172 143 163 128 286 283 316 352 42 82 91 99 123 142 152 155 158 162 162 164 170 175 176 176 181 182 177 178 182 182 184 186 184 188 195 196 178 168 167 175 172 153 138 138 170 125 146
126 139 79 97 130 204 298 270 238 293 31 49 75 101 106 126 140 145 153 157 162 161 166 166 167 176 175 177 184 186 191 190 187 177 175 179 186 181 168 166 165 161 149 139 125 138 161 127 132
15 39 85 112 144 149 196 265 218 190 180 150 142 133 140 118 143 144 142 145 142 128 135 148 158 160 166 177 182 181 187 185 177 174 178 176 173 169 172 177 167 177 186 168 150 185 161 143 151
115 126 122 131 225 152 154 254 268 170 141 123 131 131 116 114 139 146 138 133 125 120 125 138 146 155 172 172 165 169 170 164 167 182 187 174 172 174 174 170 166 179 187 183 168 190 173 158 166